Time,TemperatureF,DewpointF,PressureIn,WindDirection,WindDirectionDegrees,WindSpeedMPH,WindSpeedGustMPH,Humidity,HourlyPrecipIn,Conditions,Clouds,dailyrainin,SoftwareType,DateUTC
2013-09-13 00:04:00,48.1,42.5,30.28,East,82,1.0,1.0,81,0.00,,,0.00,LWC V2.10 B1813,2013-09-13 08:04:00,
2013-09-13 00:09:00,48.1,42.5,30.28,East,82,0.0,2.0,81,0.00,,,0.00,LWC V2.10 B1813,2013-09-13 08:09:00,
2013-09-13 00:14:00,48.3,42.7,30.28,East,84,0.0,2.0,81,0.00,,,0.00,LWC V2.10 B1813,2013-09-13 08:14:00,
2013-09-13 00:19:00,48.6,43.0,30.28,East,82,0.0,0.0,81,0.00,,,0.00,LWC V2.10 B1813,2013-09-13 08:19:00,
2013-09-13 00:24:00,48.7,43.5,30.28,East,82,0.0,0.0,82,0.00,,,0.00,LWC V2.10 B1813,2013-09-13 08:24:00,
2013-09-13 00:29:00,48.6,43.4,30.28,East,83,0.0,0.0,82,0.00,,,0.00,LWC V2.10 B1813,2013-09-13 08:29:00,
2013-09-13 00:34:00,48.4,43.2,30.28,East,84,0.0,0.0,82,0.00,,,0.00,LWC V2.10 B1813,2013-09-13 08:34:00,
2013-09-13 00:39:00,48.2,43.0,30.28,East,83,0.0,0.0,82,0.00,,,0.00,LWC V2.10 B1813,2013-09-13 08:39:00,
2013-09-13 00:44:00,48.1,42.9,30.28,East,83,0.0,0.0,82,0.00,,,0.00,LWC V2.10 B1813,2013-09-13 08:44:00,
2013-09-13 00:49:00,47.9,42.7,30.29,East,83,0.0,0.0,82,0.00,,,0.00,LWC V2.10 B1813,2013-09-13 08:49:00,
2013-09-13 00:54:00,47.8,42.6,30.29,East,83,1.0,2.0,82,0.00,,,0.00,LWC V2.10 B1813,2013-09-13 08:54:00,
2013-09-13 00:59:00,47.7,42.8,30.29,East,83,0.0,0.0,83,0.00,,,0.00,LWC V2.10 B1813,2013-09-13 08:59:00,
2013-09-13 01:04:00,47.5,42.6,30.29,East,82,0.0,0.0,83,0.00,,,0.00,LWC V2.10 B1813,2013-09-13 09:04:00,
2013-09-13 01:09:00,47.4,42.5,30.29,East,83,0.0,0.0,83,0.00,,,0.00,LWC V2.10 B1813,2013-09-13 09:09:00,
2013-09-13 01:14:00,47.4,42.8,30.29,East,83,0.0,0.0,84,0.00,,,0.00,LWC V2.10 B1813,2013-09-13 09:14:00,
2013-09-13 01:19:00,47.3,42.7,30.29,East,83,0.0,0.0,84,0.00,,,0.00,LWC V2.10 B1813,2013-09-13 09:19:00,
2013-09-13 01:24:00,47.3,43.0,30.29,East,82,0.0,0.0,85,0.00,,,0.00,LWC V2.10 B1813,2013-09-13 09:24:00,
2013-09-13 01:29:00,47.3,43.0,30.29,East,84,0.0,1.0,85,0.00,,,0.00,LWC V2.10 B1813,2013-09-13 09:29:00,
2013-09-13 01:34:00,47.2,42.9,30.29,East,83,0.0,0.0,85,0.00,,,0.00,LWC V2.10 B1813,2013-09-13 09:34:00,
2013-09-13 01:39:00,47.1,42.8,30.29,East,83,0.0,0.0,85,0.00,,,0.00,LWC V2.10 B1813,2013-09-13 09:39:00,
2013-09-13 01:44:00,47.0,42.7,30.29,East,82,0.0,0.0,85,0.00,,,0.00,LWC V2.10 B1813,2013-09-13 09:44:00,
2013-09-13 01:49:00,47.0,42.7,30.29,East,83,0.0,0.0,85,0.00,,,0.00,LWC V2.10 B1813,2013-09-13 09:49:00,
2013-09-13 01:54:00,46.9,42.6,30.29,East,83,0.0,1.0,85,0.00,,,0.00,LWC V2.10 B1813,2013-09-13 09:54:00,
2013-09-13 01:59:00,46.9,42.9,30.30,East,83,0.0,0.0,86,0.00,,,0.00,LWC V2.10 B1813,2013-09-13 09:59:00,
2013-09-13 02:04:00,46.9,42.9,30.30,East,83,0.0,0.0,86,0.00,,,0.00,LWC V2.10 B1813,2013-09-13 10:04:00,
2013-09-13 02:09:00,46.8,42.8,30.30,East,83,0.0,0.0,86,0.00,,,0.00,LWC V2.10 B1813,2013-09-13 10:09:00,
2013-09-13 02:14:00,46.8,42.8,30.30,East,82,0.0,0.0,86,0.00,,,0.00,LWC V2.10 B1813,2013-09-13 10:14:00,
2013-09-13 02:19:00,46.8,42.8,30.30,East,83,0.0,0.0,86,0.00,,,0.00,LWC V2.10 B1813,2013-09-13 10:19:00,
2013-09-13 02:24:00,46.7,42.7,30.30,East,83,0.0,0.0,86,0.00,,,0.00,LWC V2.10 B1813,2013-09-13 10:24:00,
2013-09-13 02:29:00,46.7,42.7,30.30,East,83,0.0,0.0,86,0.00,,,0.00,LWC V2.10 B1813,2013-09-13 10:29:00,
2013-09-13 02:34:00,46.6,42.6,30.30,East,82,0.0,0.0,86,0.00,,,0.00,LWC V2.10 B1813,2013-09-13 10:34:00,
2013-09-13 02:39:00,46.6,42.6,30.30,East,82,0.0,0.0,86,0.00,,,0.00,LWC V2.10 B1813,2013-09-13 10:39:00,
2013-09-13 02:44:00,46.5,42.8,30.30,East,82,1.0,2.0,87,0.00,,,0.00,LWC V2.10 B1813,2013-09-13 10:44:00,
2013-09-13 02:49:00,46.5,42.8,30.30,ESE,105,1.0,2.0,87,0.00,,,0.00,LWC V2.10 B1813,2013-09-13 10:49:00,
2013-09-13 02:54:00,46.4,42.7,30.31,ESE,105,2.0,3.0,87,0.00,,,0.00,LWC V2.10 B1813,2013-09-13 10:54:00,
2013-09-13 02:59:00,46.4,42.7,30.31,ESE,106,3.0,4.0,87,0.00,,,0.00,LWC V2.10 B1813,2013-09-13 10:59:00,
2013-09-13 03:04:00,46.4,42.7,30.31,ESE,105,0.0,3.0,87,0.00,,,0.00,LWC V2.10 B1813,2013-09-13 11:04:00,
2013-09-13 03:09:00,46.4,42.7,30.31,ESE,104,3.0,3.0,87,0.00,,,0.00,LWC V2.10 B1813,2013-09-13 11:09:00,
2013-09-13 03:14:00,46.3,42.6,30.31,ESE,105,0.0,2.0,87,0.00,,,0.00,LWC V2.10 B1813,2013-09-13 11:14:00,
2013-09-13 03:19:00,46.3,42.6,30.30,ESE,105,0.0,1.0,87,0.00,,,0.00,LWC V2.10 B1813,2013-09-13 11:19:00,
2013-09-13 03:24:00,46.3,42.9,30.30,ESE,106,0.0,1.0,88,0.00,,,0.00,LWC V2.10 B1813,2013-09-13 11:24:00,
2013-09-13 03:29:00,46.2,42.8,30.31,ESE,104,0.0,0.0,88,0.00,,,0.00,LWC V2.10 B1813,2013-09-13 11:29:00,
2013-09-13 03:34:00,46.1,42.7,30.31,ESE,105,0.0,0.0,88,0.00,,,0.00,LWC V2.10 B1813,2013-09-13 11:34:00,
2013-09-13 03:39:00,46.0,42.6,30.31,ESE,106,0.0,1.0,88,0.00,,,0.00,LWC V2.10 B1813,2013-09-13 11:39:00,
2013-09-13 03:44:00,45.8,42.5,30.31,ESE,105,0.0,1.0,88,0.00,,,0.00,LWC V2.10 B1813,2013-09-13 11:44:00,
2013-09-13 03:49:00,45.7,42.4,30.31,ESE,107,0.0,0.0,88,0.00,,,0.00,LWC V2.10 B1813,2013-09-13 11:49:00,
2013-09-13 03:54:00,45.5,42.2,30.31,ESE,105,0.0,0.0,88,0.00,,,0.00,LWC V2.10 B1813,2013-09-13 11:54:00,
2013-09-13 03:59:00,45.4,42.1,30.31,ESE,105,0.0,1.0,88,0.00,,,0.00,LWC V2.10 B1813,2013-09-13 11:59:00,
2013-09-13 04:04:00,45.2,42.2,30.31,ESE,105,0.0,1.0,89,0.00,,,0.00,LWC V2.10 B1813,2013-09-13 12:04:00,
2013-09-13 04:09:00,45.0,42.0,30.31,ESE,106,0.0,0.0,89,0.00,,,0.00,LWC V2.10 B1813,2013-09-13 12:09:00,
2013-09-13 04:14:00,45.0,42.2,30.31,ESE,105,0.0,2.0,90,0.00,,,0.00,LWC V2.10 B1813,2013-09-13 12:14:00,
2013-09-13 04:19:00,44.9,42.1,30.31,ESE,105,0.0,0.0,90,0.00,,,0.00,LWC V2.10 B1813,2013-09-13 12:19:00,
2013-09-13 04:24:00,44.7,41.9,30.31,ESE,107,0.0,0.0,90,0.00,,,0.00,LWC V2.10 B1813,2013-09-13 12:24:00,
2013-09-13 04:29:00,44.4,41.7,30.31,ESE,105,0.0,0.0,90,0.00,,,0.00,LWC V2.10 B1813,2013-09-13 12:29:00,
2013-09-13 04:34:00,44.3,41.6,30.31,ESE,105,0.0,1.0,90,0.00,,,0.00,LWC V2.10 B1813,2013-09-13 12:34:00,
2013-09-13 04:39:00,44.3,41.8,30.31,ESE,105,0.0,2.0,91,0.00,,,0.00,LWC V2.10 B1813,2013-09-13 12:39:00,
2013-09-13 04:44:00,44.3,41.8,30.31,ESE,105,1.0,1.0,91,0.00,,,0.00,LWC V2.10 B1813,2013-09-13 12:44:00,
2013-09-13 04:49:00,44.3,42.1,30.31,ESE,105,0.0,1.0,92,0.00,,,0.00,LWC V2.10 B1813,2013-09-13 12:49:00,
2013-09-13 04:54:00,44.3,42.1,30.32,ESE,105,0.0,0.0,92,0.00,,,0.00,LWC V2.10 B1813,2013-09-13 12:54:00,
2013-09-13 04:59:00,44.3,42.1,30.32,ESE,106,0.0,0.0,92,0.00,,,0.00,LWC V2.10 B1813,2013-09-13 12:59:00,
2013-09-13 05:04:00,44.3,42.1,30.32,ESE,106,0.0,1.0,92,0.00,,,0.00,LWC V2.10 B1813,2013-09-13 13:04:00,
2013-09-13 05:09:00,44.2,42.0,30.32,ESE,105,0.0,0.0,92,0.00,,,0.00,LWC V2.10 B1813,2013-09-13 13:09:00,
2013-09-13 05:14:00,44.3,42.1,30.32,ESE,105,2.0,2.0,92,0.00,,,0.00,LWC V2.10 B1813,2013-09-13 13:14:00,
2013-09-13 05:19:00,44.4,42.2,30.32,ESE,105,0.0,0.0,92,0.00,,,0.00,LWC V2.10 B1813,2013-09-13 13:19:00,
2013-09-13 05:24:00,44.4,42.2,30.32,ESE,106,0.0,1.0,92,0.00,,,0.00,LWC V2.10 B1813,2013-09-13 13:24:00,
2013-09-13 05:29:00,44.4,42.2,30.32,ESE,105,0.0,0.0,92,0.00,,,0.00,LWC V2.10 B1813,2013-09-13 13:29:00,
2013-09-13 05:34:00,44.3,42.1,30.32,ESE,105,0.0,0.0,92,0.00,,,0.00,LWC V2.10 B1813,2013-09-13 13:34:00,
2013-09-13 05:39:00,44.3,42.1,30.31,ESE,106,0.0,2.0,92,0.00,,,0.00,LWC V2.10 B1813,2013-09-13 13:39:00,
2013-09-13 05:44:00,44.2,42.0,30.32,ESE,107,1.0,1.0,92,0.00,,,0.00,LWC V2.10 B1813,2013-09-13 13:44:00,
2013-09-13 05:49:00,44.3,42.1,30.32,ESE,107,0.0,0.0,92,0.00,,,0.00,LWC V2.10 B1813,2013-09-13 13:49:00,
2013-09-13 05:54:00,44.3,42.1,30.32,ESE,107,0.0,0.0,92,0.00,,,0.00,LWC V2.10 B1813,2013-09-13 13:54:00,
2013-09-13 05:59:00,44.3,42.1,30.32,ESE,108,0.0,0.0,92,0.00,,,0.00,LWC V2.10 B1813,2013-09-13 13:59:00,
2013-09-13 06:04:00,44.3,42.1,30.32,ESE,107,0.0,0.0,92,0.00,,,0.00,LWC V2.10 B1813,2013-09-13 14:04:00,
2013-09-13 06:09:00,44.2,42.0,30.32,ESE,108,0.0,0.0,92,0.00,,,0.00,LWC V2.10 B1813,2013-09-13 14:09:00,
2013-09-13 06:14:00,44.1,41.6,30.32,ESE,108,0.0,2.0,91,0.00,,,0.00,LWC V2.10 B1813,2013-09-13 14:14:00,
2013-09-13 06:19:00,44.1,41.1,30.32,ESE,107,0.0,2.0,89,0.00,,,0.00,LWC V2.10 B1813,2013-09-13 14:19:00,
2013-09-13 06:24:00,44.1,41.1,30.32,ESE,107,0.0,0.0,89,0.00,,,0.00,LWC V2.10 B1813,2013-09-13 14:24:00,
2013-09-13 06:29:00,44.1,41.1,30.32,ESE,108,0.0,0.0,89,0.00,,,0.00,LWC V2.10 B1813,2013-09-13 14:29:00,
2013-09-13 06:34:00,44.1,41.1,30.32,ESE,108,0.0,1.0,89,0.00,,,0.00,LWC V2.10 B1813,2013-09-13 14:34:00,
2013-09-13 06:39:00,43.9,40.9,30.32,ESE,109,0.0,0.0,89,0.00,,,0.00,LWC V2.10 B1813,2013-09-13 14:39:00,
2013-09-13 06:44:00,43.7,40.7,30.32,ESE,108,0.0,2.0,89,0.00,,,0.00,LWC V2.10 B1813,2013-09-13 14:44:00,
2013-09-13 06:49:00,43.6,40.9,30.32,ESE,109,0.0,0.0,90,0.00,,,0.00,LWC V2.10 B1813,2013-09-13 14:49:00,
2013-09-13 06:54:00,43.4,40.7,30.32,ESE,108,0.0,0.0,90,0.00,,,0.00,LWC V2.10 B1813,2013-09-13 14:54:00,
2013-09-13 06:59:00,43.4,40.7,30.33,ESE,107,0.0,1.0,90,0.00,,,0.00,LWC V2.10 B1813,2013-09-13 14:59:00,
2013-09-13 07:04:00,43.3,40.6,30.33,ESE,108,0.0,2.0,90,0.00,,,0.00,LWC V2.10 B1813,2013-09-13 15:04:00,
2013-09-13 07:09:00,43.2,40.5,30.33,ESE,107,0.0,0.0,90,0.00,,,0.00,LWC V2.10 B1813,2013-09-13 15:09:00,
2013-09-13 07:14:00,43.1,40.7,30.33,ESE,107,0.0,0.0,91,0.00,,,0.00,LWC V2.10 B1813,2013-09-13 15:14:00,
2013-09-13 07:19:00,43.1,40.7,30.33,ESE,107,2.0,2.0,91,0.00,,,0.00,LWC V2.10 B1813,2013-09-13 15:19:00,
2013-09-13 07:24:00,43.0,40.6,30.33,ESE,107,0.0,0.0,91,0.00,,,0.00,LWC V2.10 B1813,2013-09-13 15:24:00,
2013-09-13 07:29:00,43.1,40.7,30.33,ESE,108,0.0,1.0,91,0.00,,,0.00,LWC V2.10 B1813,2013-09-13 15:29:00,
2013-09-13 07:34:00,43.1,40.7,30.33,ESE,107,1.0,2.0,91,0.00,,,0.00,LWC V2.10 B1813,2013-09-13 15:34:00,
2013-09-13 07:39:00,43.3,40.9,30.33,East,80,3.0,3.0,91,0.00,,,0.00,LWC V2.10 B1813,2013-09-13 15:39:00,
2013-09-13 07:44:00,43.4,41.0,30.33,ENE,74,1.0,3.0,91,0.00,,,0.00,LWC V2.10 B1813,2013-09-13 15:44:00,
2013-09-13 07:49:00,43.6,41.1,30.33,ENE,74,2.0,3.0,91,0.00,,,0.00,LWC V2.10 B1813,2013-09-13 15:49:00,
2013-09-13 07:54:00,43.7,41.0,30.33,ENE,78,1.0,3.0,90,0.00,,,0.00,LWC V2.10 B1813,2013-09-13 15:54:00,
2013-09-13 07:59:00,43.7,41.0,30.33,East,82,2.0,3.0,90,0.00,,,0.00,LWC V2.10 B1813,2013-09-13 15:59:00,
2013-09-13 08:04:00,43.6,40.9,30.33,ENE,59,3.0,3.0,90,0.00,,,0.00,LWC V2.10 B1813,2013-09-13 16:04:00,
2013-09-13 08:09:00,43.6,40.9,30.33,ENE,59,0.0,1.0,90,0.00,,,0.00,LWC V2.10 B1813,2013-09-13 16:09:00,
2013-09-13 08:14:00,43.6,40.9,30.33,ESE,111,3.0,4.0,90,0.00,,,0.00,LWC V2.10 B1813,2013-09-13 16:14:00,
2013-09-13 08:20:00,43.4,40.7,30.34,ESE,104,2.0,3.0,90,0.00,,,0.00,LWC V2.10 B1813,2013-09-13 16:20:00,
2013-09-13 08:25:00,43.2,40.8,30.33,ESE,107,3.0,3.0,91,0.00,,,0.00,LWC V2.10 B1813,2013-09-13 16:25:00,
2013-09-13 08:30:00,43.1,40.7,30.33,ESE,107,0.0,2.0,91,0.00,,,0.00,LWC V2.10 B1813,2013-09-13 16:30:00,
2013-09-13 08:35:00,43.1,40.4,30.34,ESE,107,0.0,1.0,90,0.00,,,0.00,LWC V2.10 B1813,2013-09-13 16:35:00,
2013-09-13 08:40:00,43.2,40.5,30.33,ESE,108,1.0,2.0,90,0.00,,,0.00,LWC V2.10 B1813,2013-09-13 16:40:00,
2013-09-13 08:45:00,43.3,40.6,30.34,ESE,107,1.0,2.0,90,0.00,,,0.00,LWC V2.10 B1813,2013-09-13 16:45:00,
2013-09-13 08:50:00,43.4,40.7,30.34,ESE,107,0.0,0.0,90,0.00,,,0.00,LWC V2.10 B1813,2013-09-13 16:50:00,
2013-09-13 08:55:00,43.6,40.9,30.33,ESE,106,0.0,0.0,90,0.00,,,0.00,LWC V2.10 B1813,2013-09-13 16:55:00,
2013-09-13 09:00:00,43.7,41.0,30.34,ESE,107,0.0,0.0,90,0.00,,,0.00,LWC V2.10 B1813,2013-09-13 17:00:00,
2013-09-13 09:05:00,43.8,41.3,30.33,ESE,107,0.0,0.0,91,0.00,,,0.00,LWC V2.10 B1813,2013-09-13 17:05:00,
2013-09-13 09:10:00,44.0,41.3,30.33,ESE,107,0.0,0.0,90,0.00,,,0.00,LWC V2.10 B1813,2013-09-13 17:10:00,
2013-09-13 09:15:00,44.1,41.1,30.34,ESE,107,0.0,1.0,89,0.00,,,0.00,LWC V2.10 B1813,2013-09-13 17:15:00,
2013-09-13 09:20:00,44.1,40.8,30.34,ESE,106,0.0,0.0,88,0.00,,,0.00,LWC V2.10 B1813,2013-09-13 17:20:00,
2013-09-13 09:25:00,44.2,40.9,30.34,ESE,107,0.0,0.0,88,0.00,,,0.00,LWC V2.10 B1813,2013-09-13 17:25:00,
2013-09-13 09:30:00,44.2,40.9,30.34,ESE,107,0.0,0.0,88,0.00,,,0.00,LWC V2.10 B1813,2013-09-13 17:30:00,
2013-09-13 09:35:00,44.2,40.9,30.34,ESE,107,0.0,0.0,88,0.00,,,0.00,LWC V2.10 B1813,2013-09-13 17:35:00,
2013-09-13 09:40:00,44.3,41.0,30.34,ESE,107,0.0,0.0,88,0.00,,,0.00,LWC V2.10 B1813,2013-09-13 17:40:00,
2013-09-13 09:45:00,44.4,40.8,30.34,ESE,107,0.0,0.0,87,0.00,,,0.00,LWC V2.10 B1813,2013-09-13 17:45:00,
2013-09-13 09:50:00,44.6,40.7,30.34,ESE,107,0.0,0.0,86,0.00,,,0.00,LWC V2.10 B1813,2013-09-13 17:50:00,
2013-09-13 09:55:00,44.9,41.0,30.34,ESE,107,1.0,2.0,86,0.00,,,0.00,LWC V2.10 B1813,2013-09-13 17:55:00,
2013-09-13 10:00:00,45.0,41.1,30.34,ESE,106,0.0,0.0,86,0.00,,,0.00,LWC V2.10 B1813,2013-09-13 18:00:00,
2013-09-13 10:05:00,45.1,40.9,30.34,ESE,107,0.0,1.0,85,0.00,,,0.00,LWC V2.10 B1813,2013-09-13 18:05:00,
2013-09-13 10:10:00,45.2,41.3,30.35,ESE,107,0.0,2.0,86,0.00,,,0.00,LWC V2.10 B1813,2013-09-13 18:10:00,
2013-09-13 10:15:00,45.4,41.5,30.35,ESE,108,1.0,2.0,86,0.00,,,0.00,LWC V2.10 B1813,2013-09-13 18:15:00,
2013-09-13 10:20:00,45.5,41.3,30.34,ESE,107,0.0,1.0,85,0.00,,,0.00,LWC V2.10 B1813,2013-09-13 18:20:00,
2013-09-13 10:25:00,45.5,41.3,30.34,ESE,107,0.0,0.0,85,0.00,,,0.00,LWC V2.10 B1813,2013-09-13 18:25:00,
2013-09-13 10:30:00,45.8,42.2,30.35,ESE,109,0.0,0.0,87,0.00,,,0.00,LWC V2.10 B1813,2013-09-13 18:30:00,
2013-09-13 10:35:00,46.0,42.6,30.35,ESE,107,0.0,0.0,88,0.00,,,0.00,LWC V2.10 B1813,2013-09-13 18:35:00,
2013-09-13 10:40:00,46.2,43.1,30.35,ESE,107,0.0,0.0,89,0.00,,,0.00,LWC V2.10 B1813,2013-09-13 18:40:00,
2013-09-13 10:45:00,46.3,42.9,30.35,ESE,107,0.0,1.0,88,0.00,,,0.00,LWC V2.10 B1813,2013-09-13 18:45:00,
2013-09-13 10:50:00,46.2,42.8,30.35,ESE,107,0.0,0.0,88,0.00,,,0.00,LWC V2.10 B1813,2013-09-13 18:50:00,
2013-09-13 10:55:00,46.2,42.8,30.35,ESE,109,0.0,0.0,88,0.00,,,0.00,LWC V2.10 B1813,2013-09-13 18:55:00,
2013-09-13 11:00:00,46.3,43.2,30.35,ESE,108,0.0,0.0,89,0.00,,,0.00,LWC V2.10 B1813,2013-09-13 19:00:00,
2013-09-13 11:05:00,46.3,43.2,30.35,ESE,107,0.0,0.0,89,0.00,,,0.00,LWC V2.10 B1813,2013-09-13 19:05:00,
2013-09-13 11:10:00,46.3,43.2,30.35,ESE,109,0.0,0.0,89,0.00,,,0.00,LWC V2.10 B1813,2013-09-13 19:10:00,
2013-09-13 11:15:00,46.3,42.6,30.35,ESE,107,0.0,0.0,87,0.00,,,0.00,LWC V2.10 B1813,2013-09-13 19:15:00,
2013-09-13 11:20:00,46.3,42.6,30.35,ESE,107,0.0,0.0,87,0.00,,,0.00,LWC V2.10 B1813,2013-09-13 19:20:00,
2013-09-13 11:25:00,46.4,43.0,30.35,ESE,110,0.0,0.0,88,0.00,,,0.00,LWC V2.10 B1813,2013-09-13 19:25:00,
2013-09-13 11:30:00,46.5,43.1,30.35,ESE,107,1.0,1.0,88,0.00,,,0.00,LWC V2.10 B1813,2013-09-13 19:30:00,
2013-09-13 11:35:00,46.5,43.1,30.35,ESE,108,1.0,1.0,88,0.00,,,0.00,LWC V2.10 B1813,2013-09-13 19:35:00,
2013-09-13 11:40:00,46.5,43.1,30.35,NE,41,0.0,0.0,88,0.00,,,0.00,LWC V2.10 B1813,2013-09-13 19:40:00,
2013-09-13 11:45:00,46.7,43.3,30.34,North,9,3.0,3.0,88,0.00,,,0.00,LWC V2.10 B1813,2013-09-13 19:45:00,
2013-09-13 11:51:00,46.8,43.7,30.34,North,0,0.0,3.0,89,0.00,,,0.00,LWC V2.10 B1813,2013-09-13 19:51:00,
2013-09-13 11:56:00,46.9,43.8,30.34,North,5,0.0,0.0,89,0.00,,,0.00,LWC V2.10 B1813,2013-09-13 19:56:00,
2013-09-13 12:01:00,47.2,43.8,30.34,North,9,0.0,2.0,88,0.00,,,0.00,LWC V2.10 B1813,2013-09-13 20:01:00,
2013-09-13 12:06:00,47.4,44.6,30.34,ENE,78,2.0,3.0,90,0.00,,,0.00,LWC V2.10 B1813,2013-09-13 20:06:00,
2013-09-13 12:11:00,47.4,44.6,30.34,ENE,65,2.0,4.0,90,0.00,,,0.00,LWC V2.10 B1813,2013-09-13 20:11:00,
2013-09-13 12:16:00,47.4,44.6,30.34,ENE,65,2.0,2.0,90,0.00,,,0.00,LWC V2.10 B1813,2013-09-13 20:16:00,
2013-09-13 12:21:00,47.4,44.9,30.34,ENE,65,0.0,1.0,91,0.00,,,0.00,LWC V2.10 B1813,2013-09-13 20:21:00,
2013-09-13 12:26:00,47.6,45.1,30.34,ENE,65,0.0,2.0,91,0.00,,,0.00,LWC V2.10 B1813,2013-09-13 20:26:00,
2013-09-13 12:31:00,47.6,45.1,30.34,ENE,65,0.0,2.0,91,0.00,,,0.00,LWC V2.10 B1813,2013-09-13 20:31:00,
2013-09-13 12:36:00,47.5,45.0,30.34,ENE,65,0.0,0.0,91,0.00,,,0.00,LWC V2.10 B1813,2013-09-13 20:36:00,
2013-09-13 12:41:00,47.7,45.2,30.34,ENE,64,1.0,1.0,91,0.00,,,0.00,LWC V2.10 B1813,2013-09-13 20:41:00,
2013-09-13 12:46:00,47.8,45.3,30.35,ENE,78,2.0,3.0,91,0.00,,,0.00,LWC V2.10 B1813,2013-09-13 20:46:00,
2013-09-13 12:51:00,47.6,44.8,30.34,ENE,78,2.0,3.0,90,0.00,,,0.00,LWC V2.10 B1813,2013-09-13 20:51:00,
2013-09-13 12:56:00,47.3,43.3,30.35,East,87,3.0,5.0,86,0.00,,,0.00,LWC V2.10 B1813,2013-09-13 20:56:00,
2013-09-13 13:01:00,47.2,42.6,30.35,East,87,1.0,2.0,84,0.00,,,0.00,LWC V2.10 B1813,2013-09-13 21:01:00,
2013-09-13 13:06:00,47.2,42.6,30.35,East,87,0.0,0.0,84,0.00,,,0.00,LWC V2.10 B1813,2013-09-13 21:06:00,
2013-09-13 13:11:00,47.3,42.7,30.34,East,87,0.0,0.0,84,0.00,,,0.00,LWC V2.10 B1813,2013-09-13 21:11:00,
2013-09-13 13:16:00,47.4,43.1,30.34,East,87,0.0,0.0,85,0.00,,,0.00,LWC V2.10 B1813,2013-09-13 21:16:00,
2013-09-13 13:21:00,47.6,43.6,30.35,East,86,0.0,0.0,86,0.00,,,0.00,LWC V2.10 B1813,2013-09-13 21:21:00,
2013-09-13 13:26:00,47.6,43.3,30.35,East,87,0.0,1.0,85,0.00,,,0.00,LWC V2.10 B1813,2013-09-13 21:26:00,
2013-09-13 13:31:00,47.6,42.7,30.35,East,87,1.0,2.0,83,0.00,,,0.00,LWC V2.10 B1813,2013-09-13 21:31:00,
2013-09-13 13:36:00,47.4,42.8,30.34,East,87,0.0,0.0,84,0.00,,,0.00,LWC V2.10 B1813,2013-09-13 21:36:00,
2013-09-13 13:41:00,47.5,42.9,30.35,East,87,0.0,0.0,84,0.00,,,0.00,LWC V2.10 B1813,2013-09-13 21:41:00,
2013-09-13 13:46:00,47.6,43.3,30.35,East,86,0.0,0.0,85,0.00,,,0.00,LWC V2.10 B1813,2013-09-13 21:46:00,
2013-09-13 13:51:00,47.8,43.8,30.35,East,87,0.0,0.0,86,0.00,,,0.00,LWC V2.10 B1813,2013-09-13 21:51:00,
2013-09-13 13:56:00,48.0,44.3,30.34,East,86,0.0,2.0,87,0.00,,,0.00,LWC V2.10 B1813,2013-09-13 21:56:00,
2013-09-13 14:01:00,48.3,45.2,30.34,East,86,0.0,0.0,89,0.00,,,0.00,LWC V2.10 B1813,2013-09-13 22:01:00,
2013-09-13 14:06:00,48.4,45.3,30.34,East,86,0.0,0.0,89,0.00,,,0.00,LWC V2.10 B1813,2013-09-13 22:06:00,
2013-09-13 14:11:00,48.6,45.5,30.34,East,87,0.0,1.0,89,0.00,,,0.00,LWC V2.10 B1813,2013-09-13 22:11:00,
2013-09-13 14:16:00,48.6,45.5,30.35,East,87,0.0,0.0,89,0.00,,,0.00,LWC V2.10 B1813,2013-09-13 22:16:00,
2013-09-13 14:21:00,48.6,45.8,30.35,East,86,0.0,0.0,90,0.00,,,0.00,LWC V2.10 B1813,2013-09-13 22:21:00,
2013-09-13 14:26:00,48.6,45.8,30.35,East,87,0.0,1.0,90,0.00,,,0.00,LWC V2.10 B1813,2013-09-13 22:26:00,
2013-09-13 14:31:00,48.6,46.1,30.35,East,86,0.0,0.0,91,0.00,,,0.00,LWC V2.10 B1813,2013-09-13 22:31:00,
2013-09-13 14:36:00,48.5,45.7,30.35,East,87,0.0,0.0,90,0.00,,,0.00,LWC V2.10 B1813,2013-09-13 22:36:00,
2013-09-13 14:41:00,48.4,45.6,30.35,East,86,0.0,1.0,90,0.00,,,0.00,LWC V2.10 B1813,2013-09-13 22:41:00,
2013-09-13 14:46:00,48.3,45.8,30.35,East,86,0.0,1.0,91,0.00,,,0.00,LWC V2.10 B1813,2013-09-13 22:46:00,
2013-09-13 14:51:00,48.3,45.8,30.35,East,91,0.0,0.0,91,0.00,,,0.00,LWC V2.10 B1813,2013-09-13 22:51:00,
2013-09-13 14:56:00,48.3,45.5,30.35,East,87,0.0,0.0,90,0.00,,,0.00,LWC V2.10 B1813,2013-09-13 22:56:00,
2013-09-13 15:01:00,48.2,45.4,30.35,East,86,0.0,0.0,90,0.00,,,0.00,LWC V2.10 B1813,2013-09-13 23:01:00,
2013-09-13 15:06:00,48.1,45.6,30.35,East,88,0.0,0.0,91,0.00,,,0.00,LWC V2.10 B1813,2013-09-13 23:06:00,
2013-09-13 15:11:00,48.1,45.6,30.35,East,86,0.0,0.0,91,0.00,,,0.01,LWC V2.10 B1813,2013-09-13 23:11:00,
2013-09-13 15:16:00,48.1,45.9,30.35,East,86,0.0,0.0,92,0.00,,,0.01,LWC V2.10 B1813,2013-09-13 23:16:00,
2013-09-13 15:21:00,48.1,45.9,30.35,East,86,0.0,0.0,92,0.00,,,0.01,LWC V2.10 B1813,2013-09-13 23:21:00,
2013-09-13 15:26:00,48.1,45.9,30.35,East,87,0.0,0.0,92,0.00,,,0.01,LWC V2.10 B1813,2013-09-13 23:26:00,
2013-09-13 15:31:00,48.0,45.8,30.35,East,84,0.0,0.0,92,0.00,,,0.01,LWC V2.10 B1813,2013-09-13 23:31:00,
2013-09-13 15:36:00,48.0,45.8,30.35,East,86,0.0,0.0,92,0.00,,,0.01,LWC V2.10 B1813,2013-09-13 23:36:00,
2013-09-13 15:41:00,47.9,45.4,30.35,East,87,0.0,0.0,91,0.00,,,0.01,LWC V2.10 B1813,2013-09-13 23:41:00,
2013-09-13 15:46:00,47.9,45.4,30.35,East,87,0.0,0.0,91,0.00,,,0.01,LWC V2.10 B1813,2013-09-13 23:46:00,
2013-09-13 15:51:00,48.0,45.8,30.35,East,87,0.0,0.0,92,0.00,,,0.01,LWC V2.10 B1813,2013-09-13 23:51:00,
2013-09-13 15:56:00,48.1,45.9,30.35,East,86,0.0,0.0,92,0.00,,,0.01,LWC V2.10 B1813,2013-09-13 23:56:00,
2013-09-13 16:02:00,48.1,45.6,30.35,East,86,0.0,0.0,91,0.00,,,0.01,LWC V2.10 B1813,2013-09-14 00:02:00,
2013-09-13 16:07:00,48.0,45.2,30.35,East,87,0.0,2.0,90,0.00,,,0.01,LWC V2.10 B1813,2013-09-14 00:07:00,
2013-09-13 16:12:00,48.1,45.3,30.35,East,87,1.0,1.0,90,0.00,,,0.01,LWC V2.10 B1813,2013-09-14 00:12:00,
2013-09-13 16:17:00,48.1,45.3,30.35,East,87,0.0,1.0,90,0.00,,,0.01,LWC V2.10 B1813,2013-09-14 00:17:00,
2013-09-13 16:22:00,48.1,45.0,30.35,East,86,0.0,1.0,89,0.00,,,0.01,LWC V2.10 B1813,2013-09-14 00:22:00,
2013-09-13 16:27:00,48.1,45.0,30.35,East,85,0.0,0.0,89,0.00,,,0.01,LWC V2.10 B1813,2013-09-14 00:27:00,
2013-09-13 16:32:00,48.1,45.3,30.35,East,87,0.0,0.0,90,0.00,,,0.01,LWC V2.10 B1813,2013-09-14 00:32:00,
2013-09-13 16:37:00,48.0,45.2,30.35,East,86,0.0,0.0,90,0.00,,,0.01,LWC V2.10 B1813,2013-09-14 00:37:00,
2013-09-13 16:42:00,47.9,45.1,30.35,East,88,0.0,0.0,90,0.00,,,0.01,LWC V2.10 B1813,2013-09-14 00:42:00,
2013-09-13 16:47:00,47.8,44.7,30.35,East,87,1.0,1.0,89,0.00,,,0.02,LWC V2.10 B1813,2013-09-14 00:47:00,
2013-09-13 16:52:00,47.5,43.5,30.35,East,87,0.0,2.0,86,0.00,,,0.02,LWC V2.10 B1813,2013-09-14 00:52:00,
2013-09-13 16:57:00,47.5,44.1,30.35,East,87,0.0,1.0,88,0.00,,,0.02,LWC V2.10 B1813,2013-09-14 00:57:00,
2013-09-13 17:02:00,47.6,44.8,30.35,East,86,0.0,1.0,90,0.00,,,0.02,LWC V2.10 B1813,2013-09-14 01:02:00,
2013-09-13 17:07:00,47.6,45.1,30.35,East,87,0.0,1.0,91,0.00,,,0.02,LWC V2.10 B1813,2013-09-14 01:07:00,
2013-09-13 17:12:00,47.7,45.2,30.35,East,86,1.0,2.0,91,0.00,,,0.02,LWC V2.10 B1813,2013-09-14 01:12:00,
2013-09-13 17:17:00,47.6,44.8,30.34,ENE,76,1.0,3.0,90,0.00,,,0.02,LWC V2.10 B1813,2013-09-14 01:17:00,
2013-09-13 17:22:00,47.3,43.9,30.34,ENE,76,0.0,3.0,88,0.00,,,0.02,LWC V2.10 B1813,2013-09-14 01:22:00,
2013-09-13 17:27:00,47.2,43.8,30.34,ENE,75,1.0,2.0,88,0.00,,,0.02,LWC V2.10 B1813,2013-09-14 01:27:00,
2013-09-13 17:32:00,47.2,44.1,30.34,ENE,57,3.0,3.0,89,0.00,,,0.02,LWC V2.10 B1813,2013-09-14 01:32:00,
2013-09-13 17:37:00,47.1,44.0,30.34,NE,56,0.0,2.0,89,0.00,,,0.02,LWC V2.10 B1813,2013-09-14 01:37:00,
2013-09-13 17:42:00,46.9,44.1,30.34,NE,55,0.0,0.0,90,0.00,,,0.02,LWC V2.10 B1813,2013-09-14 01:42:00,
2013-09-13 17:48:00,46.9,44.1,30.34,NE,55,0.0,3.0,90,0.00,,,0.02,LWC V2.10 B1813,2013-09-14 01:48:00,
2013-09-13 17:53:00,46.8,44.3,30.34,NE,55,0.0,0.0,91,0.00,,,0.02,LWC V2.10 B1813,2013-09-14 01:53:00,
2013-09-13 17:58:00,46.8,44.3,30.34,NE,55,0.0,0.0,91,0.00,,,0.02,LWC V2.10 B1813,2013-09-14 01:58:00,
2013-09-13 18:03:00,46.8,44.6,30.34,NE,56,0.0,2.0,92,0.00,,,0.02,LWC V2.10 B1813,2013-09-14 02:03:00,
2013-09-13 18:08:00,46.9,44.7,30.34,NE,55,0.0,0.0,92,0.00,,,0.02,LWC V2.10 B1813,2013-09-14 02:08:00,
2013-09-13 18:13:00,46.9,44.7,30.34,NE,55,0.0,0.0,92,0.00,,,0.02,LWC V2.10 B1813,2013-09-14 02:13:00,
2013-09-13 18:18:00,46.9,44.7,30.34,NE,55,0.0,0.0,92,0.00,,,0.02,LWC V2.10 B1813,2013-09-14 02:18:00,
2013-09-13 18:23:00,47.0,44.8,30.35,NE,55,1.0,2.0,92,0.00,,,0.02,LWC V2.10 B1813,2013-09-14 02:23:00,
2013-09-13 18:28:00,47.0,44.5,30.35,NE,55,0.0,1.0,91,0.00,,,0.02,LWC V2.10 B1813,2013-09-14 02:28:00,
2013-09-13 18:33:00,47.1,44.6,30.35,NE,55,1.0,2.0,91,0.00,,,0.02,LWC V2.10 B1813,2013-09-14 02:33:00,
2013-09-13 18:38:00,47.2,44.4,30.35,NE,55,0.0,2.0,90,0.00,,,0.02,LWC V2.10 B1813,2013-09-14 02:38:00,
2013-09-13 18:43:00,47.3,44.5,30.35,NE,55,0.0,1.0,90,0.00,,,0.02,LWC V2.10 B1813,2013-09-14 02:43:00,
2013-09-13 18:48:00,47.3,44.5,30.35,NE,55,0.0,3.0,90,0.00,,,0.02,LWC V2.10 B1813,2013-09-14 02:48:00,
2013-09-13 18:53:00,47.4,44.6,30.35,NE,54,1.0,2.0,90,0.00,,,0.02,LWC V2.10 B1813,2013-09-14 02:53:00,
2013-09-13 18:58:00,47.5,44.7,30.35,NE,55,0.0,1.0,90,0.00,,,0.02,LWC V2.10 B1813,2013-09-14 02:58:00,
2013-09-13 19:03:00,47.6,45.1,30.35,NE,55,0.0,1.0,91,0.00,,,0.02,LWC V2.10 B1813,2013-09-14 03:03:00,
2013-09-13 19:08:00,47.6,45.1,30.35,NE,55,0.0,0.0,91,0.00,,,0.02,LWC V2.10 B1813,2013-09-14 03:08:00,
2013-09-13 19:13:00,47.7,45.2,30.35,NE,53,0.0,0.0,91,0.00,,,0.02,LWC V2.10 B1813,2013-09-14 03:13:00,
2013-09-13 19:18:00,47.7,45.5,30.35,NE,55,0.0,0.0,92,0.00,,,0.02,LWC V2.10 B1813,2013-09-14 03:18:00,
2013-09-13 19:23:00,47.6,45.4,30.35,NE,54,0.0,0.0,92,0.00,,,0.02,LWC V2.10 B1813,2013-09-14 03:23:00,
2013-09-13 19:28:00,47.5,45.0,30.35,NE,55,0.0,0.0,91,0.00,,,0.02,LWC V2.10 B1813,2013-09-14 03:28:00,
2013-09-13 19:33:00,47.4,45.2,30.35,NE,55,0.0,0.0,92,0.00,,,0.02,LWC V2.10 B1813,2013-09-14 03:33:00,
2013-09-13 19:38:00,47.3,45.1,30.36,NE,55,0.0,0.0,92,0.00,,,0.02,LWC V2.10 B1813,2013-09-14 03:38:00,
2013-09-13 19:43:00,47.2,45.0,30.36,NE,55,0.0,0.0,92,0.00,,,0.02,LWC V2.10 B1813,2013-09-14 03:43:00,
2013-09-13 19:48:00,47.1,44.9,30.36,NE,55,0.0,0.0,92,0.00,,,0.02,LWC V2.10 B1813,2013-09-14 03:48:00,
2013-09-13 19:53:00,47.0,44.8,30.36,NE,55,0.0,0.0,92,0.00,,,0.02,LWC V2.10 B1813,2013-09-14 03:53:00,
2013-09-13 19:58:00,47.0,44.8,30.36,NE,55,0.0,0.0,92,0.00,,,0.02,LWC V2.10 B1813,2013-09-14 03:58:00,
2013-09-13 20:01:00,46.9,44.7,30.36,NE,55,0.0,0.0,92,0.00,,,0.02,LWC V2.10 B1813,2013-09-14 04:01:00,
2013-09-13 20:02:00,46.9,44.7,30.36,NE,55,0.0,0.0,92,0.00,,,0.02,LWC V2.10 B1813,2013-09-14 04:02:00,
2013-09-13 20:03:00,46.9,44.7,30.36,NE,55,0.0,0.0,92,0.00,,,0.02,LWC V2.10 B1813,2013-09-14 04:03:00,
2013-09-13 20:08:00,46.9,45.0,30.37,NE,55,0.0,0.0,93,0.00,,,0.02,LWC V2.10 B1813,2013-09-14 04:08:00,
2013-09-13 20:13:00,46.8,44.9,30.36,NE,55,0.0,0.0,93,0.00,,,0.02,LWC V2.10 B1813,2013-09-14 04:13:00,
2013-09-13 20:18:00,46.7,44.8,30.37,NE,55,0.0,0.0,93,0.00,,,0.02,LWC V2.10 B1813,2013-09-14 04:18:00,
2013-09-13 20:23:00,46.6,44.7,30.37,NE,55,0.0,0.0,93,0.00,,,0.02,LWC V2.10 B1813,2013-09-14 04:23:00,
2013-09-13 20:28:00,46.5,44.3,30.37,NE,54,0.0,0.0,92,0.00,,,0.02,LWC V2.10 B1813,2013-09-14 04:28:00,
2013-09-13 20:33:00,46.5,44.3,30.37,NE,55,0.0,0.0,92,0.00,,,0.02,LWC V2.10 B1813,2013-09-14 04:33:00,
2013-09-13 20:38:00,46.4,44.5,30.37,NE,56,0.0,0.0,93,0.00,,,0.02,LWC V2.10 B1813,2013-09-14 04:38:00,
2013-09-13 20:43:00,46.4,44.5,30.37,NE,55,0.0,0.0,93,0.00,,,0.02,LWC V2.10 B1813,2013-09-14 04:43:00,
2013-09-13 20:48:00,46.3,44.4,30.37,NE,53,0.0,0.0,93,0.00,,,0.02,LWC V2.10 B1813,2013-09-14 04:48:00,
2013-09-13 20:53:00,46.3,44.4,30.37,NE,55,0.0,0.0,93,0.00,,,0.02,LWC V2.10 B1813,2013-09-14 04:53:00,
2013-09-13 20:58:00,46.3,44.4,30.37,NE,54,0.0,0.0,93,0.00,,,0.02,LWC V2.10 B1813,2013-09-14 04:58:00,
2013-09-13 21:03:00,46.2,44.3,30.37,NE,55,0.0,0.0,93,0.00,,,0.02,LWC V2.10 B1813,2013-09-14 05:03:00,
2013-09-13 21:08:00,46.1,44.2,30.37,NE,55,0.0,0.0,93,0.00,,,0.02,LWC V2.10 B1813,2013-09-14 05:08:00,
2013-09-13 21:13:00,46.1,44.2,30.37,NE,56,0.0,0.0,93,0.00,,,0.02,LWC V2.10 B1813,2013-09-14 05:13:00,
2013-09-13 21:18:00,46.0,44.1,30.37,NE,55,0.0,0.0,93,0.00,,,0.02,LWC V2.10 B1813,2013-09-14 05:18:00,
2013-09-13 21:23:00,46.0,44.1,30.37,NE,55,0.0,0.0,93,0.00,,,0.02,LWC V2.10 B1813,2013-09-14 05:23:00,
2013-09-13 21:28:00,46.0,44.1,30.37,NE,55,0.0,0.0,93,0.00,,,0.03,LWC V2.10 B1813,2013-09-14 05:28:00,
2013-09-13 21:33:00,45.9,44.0,30.37,NE,54,0.0,0.0,93,0.00,,,0.03,LWC V2.10 B1813,2013-09-14 05:33:00,
2013-09-13 21:38:00,45.9,44.3,30.37,NE,55,0.0,0.0,94,0.00,,,0.03,LWC V2.10 B1813,2013-09-14 05:38:00,
2013-09-13 21:43:00,45.9,44.3,30.37,NE,55,0.0,0.0,94,0.00,,,0.03,LWC V2.10 B1813,2013-09-14 05:43:00,
2013-09-13 21:48:00,45.9,44.3,30.37,NE,56,0.0,1.0,94,0.00,,,0.03,LWC V2.10 B1813,2013-09-14 05:48:00,
2013-09-13 21:53:00,45.9,44.3,30.37,NE,55,0.0,0.0,94,0.00,,,0.03,LWC V2.10 B1813,2013-09-14 05:53:00,
2013-09-13 21:58:00,45.8,44.2,30.37,NE,55,0.0,0.0,94,0.00,,,0.03,LWC V2.10 B1813,2013-09-14 05:58:00,
2013-09-13 22:03:00,45.8,44.2,30.37,NE,55,0.0,0.0,94,0.00,,,0.03,LWC V2.10 B1813,2013-09-14 06:03:00,
2013-09-13 22:09:00,45.8,44.2,30.37,NE,55,0.0,0.0,94,0.00,,,0.03,LWC V2.10 B1813,2013-09-14 06:09:00,
2013-09-13 22:14:00,45.7,44.1,30.37,NE,55,0.0,0.0,94,0.00,,,0.03,LWC V2.10 B1813,2013-09-14 06:14:00,
2013-09-13 22:19:00,45.7,44.1,30.38,NE,55,0.0,0.0,94,0.00,,,0.03,LWC V2.10 B1813,2013-09-14 06:19:00,
2013-09-13 22:24:00,45.7,44.1,30.38,NE,54,0.0,0.0,94,0.00,,,0.03,LWC V2.10 B1813,2013-09-14 06:24:00,
2013-09-13 22:29:00,45.7,44.1,30.38,NE,55,0.0,0.0,94,0.00,,,0.03,LWC V2.10 B1813,2013-09-14 06:29:00,
2013-09-13 22:34:00,45.7,44.1,30.38,NE,55,0.0,0.0,94,0.00,,,0.03,LWC V2.10 B1813,2013-09-14 06:34:00,
2013-09-13 22:39:00,45.8,44.2,30.38,NE,55,0.0,0.0,94,0.00,,,0.03,LWC V2.10 B1813,2013-09-14 06:39:00,
2013-09-13 22:44:00,45.8,44.2,30.38,NE,55,0.0,0.0,94,0.00,,,0.03,LWC V2.10 B1813,2013-09-14 06:44:00,
2013-09-13 22:49:00,45.8,44.2,30.38,NE,55,0.0,0.0,94,0.00,,,0.03,LWC V2.10 B1813,2013-09-14 06:49:00,
2013-09-13 22:54:00,45.7,44.1,30.38,NE,55,0.0,0.0,94,0.00,,,0.03,LWC V2.10 B1813,2013-09-14 06:54:00,
2013-09-13 22:59:00,45.7,44.1,30.38,ENE,57,0.0,0.0,94,0.00,,,0.03,LWC V2.10 B1813,2013-09-14 06:59:00,
2013-09-13 23:04:00,45.7,44.1,30.38,NE,54,0.0,0.0,94,0.00,,,0.03,LWC V2.10 B1813,2013-09-14 07:04:00,
2013-09-13 23:09:00,45.7,44.1,30.38,NE,55,0.0,0.0,94,0.00,,,0.03,LWC V2.10 B1813,2013-09-14 07:09:00,
2013-09-13 23:14:00,45.6,44.0,30.38,NE,55,0.0,0.0,94,0.00,,,0.03,LWC V2.10 B1813,2013-09-14 07:14:00,
2013-09-13 23:19:00,45.6,44.0,30.38,NE,55,0.0,0.0,94,0.00,,,0.03,LWC V2.10 B1813,2013-09-14 07:19:00,
2013-09-13 23:24:00,45.6,44.0,30.38,NE,55,0.0,0.0,94,0.00,,,0.03,LWC V2.10 B1813,2013-09-14 07:24:00,
2013-09-13 23:29:00,45.6,44.0,30.39,NE,55,0.0,0.0,94,0.00,,,0.03,LWC V2.10 B1813,2013-09-14 07:29:00,
2013-09-13 23:34:00,45.6,44.0,30.39,NE,55,0.0,0.0,94,0.00,,,0.03,LWC V2.10 B1813,2013-09-14 07:34:00,
2013-09-13 23:39:00,45.6,44.0,30.39,NE,55,0.0,0.0,94,0.00,,,0.03,LWC V2.10 B1813,2013-09-14 07:39:00,
2013-09-13 23:44:00,45.6,44.0,30.39,NE,55,0.0,0.0,94,0.00,,,0.03,LWC V2.10 B1813,2013-09-14 07:44:00,
2013-09-13 23:49:00,45.6,44.0,30.39,NE,56,0.0,0.0,94,0.00,,,0.03,LWC V2.10 B1813,2013-09-14 07:49:00,
2013-09-13 23:54:00,45.6,44.0,30.39,NE,55,0.0,1.0,94,0.00,,,0.03,LWC V2.10 B1813,2013-09-14 07:54:00,
2013-09-13 23:59:00,45.6,44.0,30.39,NE,55,0.0,0.0,94,0.00,,,0.03,LWC V2.10 B1813,2013-09-14 07:59:00,